When you browse on this site, cookies collect data to enhance your experience and personalize the content and advertising you see.
Visit our Privacy Policy to learn more. By continuing to use the site, you agree to this use of cookies and data.
  • In Österreich
  • Länderverzeichnis
  • Für 7 Tage
  • Wassertemperatur
  • Wetterkarte
  • News
  • Widgets
  • user-avatar
    Anmelden

    Stündliche Wetter Siempang

    Heute, 15 Dezember, Sonntag

    Zeit Temperatur Niederschläge Wind Luftdruck Luftfeuchtigkeit
    00:00 +24°C° 0 mm 1 m/S 754 mmHg 81%
    01:00 +23°C° 0 mm 1 m/S 754 mmHg 83%
    02:00 +21°C° 0 mm 0 m/S 754 mmHg 84%
    03:00 +20°C° 0 mm 0 m/S 753 mmHg 86%
    04:00 +20°C° 0 mm 0 m/S 753 mmHg 87%
    05:00 +20°C° 0 mm 0 m/S 753 mmHg 86%
    06:00 +20°C° 0 mm 0 m/S 754 mmHg 85%
    07:00 +20°C° 0 mm 0 m/S 754 mmHg 84%
    08:00 +25°C° 0 mm 1 m/S 754 mmHg 74%
    09:00 +28°C° 0 mm 1 m/S 754 mmHg 63%
    10:00 +31°C° 0 mm 1 m/S 755 mmHg 52%
    11:00 +33°C° 0 mm 1 m/S 754 mmHg 48%
    12:00 +34°C° 0 mm 1 m/S 753 mmHg 43%
    13:00 +35°C° 0 mm 1 m/S 752 mmHg 39%
    14:00 +35°C° 0 mm 1 m/S 752 mmHg 40%
    15:00 +35°C° 0 mm 1 m/S 751 mmHg 42%
    16:00 +34°C° 0 mm 1 m/S 751 mmHg 43%
    17:00 +32°C° 0 mm 1 m/S 751 mmHg 50%
    18:00 +30°C° 0 mm 1 m/S 752 mmHg 58%
    19:00 +27°C° 0 mm 1 m/S 752 mmHg 65%
    20:00 +26°C° 0 mm 1 m/S 753 mmHg 69%
    21:00 +26°C° 0 mm 1 m/S 753 mmHg 73%
    22:00 +25°C° 0 mm 1 m/S 754 mmHg 76%
    23:00 +24°C° 0 mm 1 m/S 753 mmHg 79%

    Morgen, 16 Dezember, Montag

    Zeit Temperatur Niederschläge Wind Luftdruck Luftfeuchtigkeit
    00:00 +24°C° 0 mm 1 m/S 753 mmHg 81%
    01:00 +21°C° 0 mm 0 m/S 753 mmHg 83%
    02:00 +21°C° 0 mm 0 m/S 753 mmHg 85%
    03:00 +20°C° 0 mm 0 m/S 752 mmHg 86%
    04:00 +20°C° 0 mm 0 m/S 752 mmHg 87%
    05:00 +20°C° 0 mm 0 m/S 752 mmHg 86%
    06:00 +20°C° 0 mm 0 m/S 753 mmHg 85%
    07:00 +21°C° 0 mm 0 m/S 753 mmHg 83%
    08:00 +24°C° 0 mm 0 m/S 753 mmHg 72%
    09:00 +29°C° 0 mm 1 m/S 753 mmHg 61%
    10:00 +32°C° 0 mm 1 m/S 753 mmHg 50%
    11:00 +33°C° 0 mm 1 m/S 753 mmHg 46%
    12:00 +34°C° 0 mm 1 m/S 752 mmHg 43%
    13:00 +36°C° 0 mm 2 m/S 751 mmHg 39%
    14:00 +35°C° 0 mm 1 m/S 751 mmHg 41%
    15:00 +35°C° 0 mm 1 m/S 750 mmHg 42%
    16:00 +35°C° 0 mm 1 m/S 750 mmHg 44%
    17:00 +33°C° 0 mm 1 m/S 750 mmHg 50%
    18:00 +31°C° 0 mm 1 m/S 751 mmHg 56%
    19:00 +29°C° 0 mm 1 m/S 752 mmHg 62%
    20:00 +28°C° 0 mm 1 m/S 752 mmHg 65%
    21:00 +27°C° 0 mm 1 m/S 753 mmHg 68%
    22:00 +26°C° 0 mm 1 m/S 753 mmHg 71%
    23:00 +26°C° 0 mm 1 m/S 753 mmHg 73%

    übermorgen, 17 Dezember, Dienstag

    Zeit Temperatur Niederschläge Wind Luftdruck Luftfeuchtigkeit
    00:00 +25°C° 0 mm 1 m/S 753 mmHg 76%
    01:00 +24°C° 0 mm 1 m/S 753 mmHg 79%
    02:00 +24°C° 0 mm 1 m/S 752 mmHg 81%
    03:00 +21°C° 0 mm 0 m/S 752 mmHg 84%
    04:00 +21°C° 0 mm 0 m/S 752 mmHg 87%
    05:00 +21°C° 0 mm 0 m/S 753 mmHg 86%
    06:00 +21°C° 0 mm 0 m/S 753 mmHg 86%
    07:00 +23°C° 0 mm 1 m/S 754 mmHg 85%
    08:00 +26°C° 0 mm 1 m/S 754 mmHg 74%
    09:00 +29°C° 0 mm 1 m/S 754 mmHg 63%
    10:00 +32°C° 0 mm 1 m/S 754 mmHg 52%
    11:00 +33°C° 0 mm 1 m/S 753 mmHg 46%
    12:00 +35°C° 0 mm 1 m/S 752 mmHg 41%
    13:00 +37°C° 0 mm 2 m/S 751 mmHg 35%
    14:00 +35°C° 0 mm 1 m/S 751 mmHg 36%
    15:00 +35°C° 0 mm 1 m/S 750 mmHg 37%
    16:00 +35°C° 0 mm 1 m/S 750 mmHg 38%
    17:00 +32°C° 0 mm 1 m/S 751 mmHg 45%
    18:00 +30°C° 0 mm 1 m/S 751 mmHg 52%
    19:00 +27°C° 0 mm 1 m/S 752 mmHg 58%
    20:00 +26°C° 0 mm 1 m/S 752 mmHg 63%
    21:00 +25°C° 0 mm 1 m/S 753 mmHg 67%
    22:00 +24°C° 0 mm 1 m/S 753 mmHg 71%
    23:00 +24°C° 0 mm 1 m/S 753 mmHg 74%

    18 Dezember, Mittwoch

    Zeit Temperatur Niederschläge Wind Luftdruck Luftfeuchtigkeit
    00:00 +23°C° 0 mm 1 m/S 753 mmHg 76%
    01:00 +23°C° 0 mm 1 m/S 753 mmHg 79%
    02:00 +22°C° 0 mm 1 m/S 752 mmHg 81%
    03:00 +22°C° 0 mm 1 m/S 752 mmHg 83%
    04:00 +21°C° 0 mm 1 m/S 752 mmHg 85%
    05:00 +20°C° 0 mm 0 m/S 753 mmHg 83%
    06:00 +20°C° 0 mm 0 m/S 753 mmHg 82%
    07:00 +20°C° 0 mm 0 m/S 753 mmHg 81%
    08:00 +23°C° 0 mm 0 m/S 753 mmHg 70%
    09:00 +29°C° 0 mm 1 m/S 754 mmHg 58%
    10:00 +32°C° 0 mm 1 m/S 754 mmHg 47%
    11:00 +33°C° 0 mm 1 m/S 753 mmHg 42%
    12:00 +34°C° 0 mm 1 m/S 752 mmHg 38%
    13:00 +36°C° 0 mm 1 m/S 751 mmHg 34%
    14:00 +35°C° 0 mm 1 m/S 751 mmHg 36%
    15:00 +35°C° 0 mm 1 m/S 750 mmHg 37%
    16:00 +35°C° 0 mm 1 m/S 750 mmHg 39%
    17:00 +32°C° 0 mm 1 m/S 750 mmHg 46%
    18:00 +30°C° 0 mm 1 m/S 751 mmHg 54%
    19:00 +25°C° 0 mm 0 m/S 751 mmHg 61%
    20:00 +24°C° 0 mm 0 m/S 752 mmHg 65%
    21:00 +24°C° 0 mm 0 m/S 753 mmHg 68%
    22:00 +23°C° 0 mm 0 m/S 753 mmHg 72%
    23:00 +22°C° 0 mm 0 m/S 753 mmHg 74%

    19 Dezember, Donnerstag

    Zeit Temperatur Niederschläge Wind Luftdruck Luftfeuchtigkeit
    00:00 +22°C° 0 mm 0 m/S 753 mmHg 77%
    01:00 +21°C° 0 mm 0 m/S 753 mmHg 80%
    02:00 +21°C° 0 mm 0 m/S 752 mmHg 81%
    03:00 +22°C° 0 mm 1 m/S 752 mmHg 83%
    04:00 +22°C° 0 mm 1 m/S 752 mmHg 85%
    05:00 +20°C° 0 mm 0 m/S 752 mmHg 84%
    06:00 +20°C° 0 mm 0 m/S 753 mmHg 84%
    07:00 +21°C° 0 mm 0 m/S 753 mmHg 83%
    08:00 +23°C° 0 mm 0 m/S 753 mmHg 73%
    09:00 +26°C° 0 mm 0 m/S 753 mmHg 62%
    10:00 +31°C° 0 mm 1 m/S 754 mmHg 52%
    11:00 +33°C° 0 mm 1 m/S 753 mmHg 47%
    12:00 +34°C° 0 mm 1 m/S 752 mmHg 42%
    13:00 +36°C° 0 mm 1 m/S 751 mmHg 37%
    14:00 +35°C° 0 mm 1 m/S 751 mmHg 38%
    15:00 +35°C° 0 mm 1 m/S 750 mmHg 39%
    16:00 +33°C° 0 mm 0 m/S 750 mmHg 39%
    17:00 +30°C° 0 mm 0 m/S 750 mmHg 46%
    18:00 +30°C° 0 mm 1 m/S 751 mmHg 53%
    19:00 +27°C° 0 mm 1 m/S 751 mmHg 60%
    20:00 +27°C° 0 mm 1 m/S 752 mmHg 63%
    21:00 +26°C° 0 mm 1 m/S 752 mmHg 67%
    22:00 +25°C° 0 mm 1 m/S 753 mmHg 70%
    23:00 +25°C° 0 mm 1 m/S 753 mmHg 72%

    20 Dezember, Freitag

    Zeit Temperatur Niederschläge Wind Luftdruck Luftfeuchtigkeit
    00:00 +24°C° 0 mm 1 m/S 753 mmHg 75%
    01:00 +23°C° 0 mm 1 m/S 753 mmHg 77%
    02:00 +23°C° 0 mm 1 m/S 752 mmHg 80%
    03:00 +21°C° 0 mm 0 m/S 752 mmHg 82%
    04:00 +20°C° 0 mm 0 m/S 752 mmHg 85%
    05:00 +20°C° 0 mm 0 m/S 752 mmHg 85%
    06:00 +21°C° 0 mm 0 m/S 753 mmHg 84%
    07:00 +21°C° 0 mm 0 m/S 753 mmHg 84%
    08:00 +26°C° 0 mm 1 m/S 753 mmHg 73%
    09:00 +29°C° 0 mm 1 m/S 753 mmHg 62%
    10:00 +31°C° 0 mm 1 m/S 753 mmHg 50%
    11:00 +33°C° 0 mm 1 m/S 752 mmHg 45%
    12:00 +34°C° 0 mm 1 m/S 752 mmHg 41%
    13:00 +35°C° 0 mm 1 m/S 751 mmHg 36%
    14:00 +35°C° 0 mm 1 m/S 750 mmHg 37%
    15:00 +35°C° 0 mm 1 m/S 750 mmHg 38%
    16:00 +34°C° 0 mm 1 m/S 749 mmHg 39%
    17:00 +32°C° 0 mm 1 m/S 750 mmHg 46%
    18:00 +28°C° 0 mm 0 m/S 750 mmHg 52%
    19:00 +25°C° 0 mm 0 m/S 751 mmHg 59%
    20:00 +25°C° 0 mm 0 m/S 751 mmHg 62%
    21:00 +26°C° 0 mm 1 m/S 752 mmHg 65%
    22:00 +25°C° 0 mm 1 m/S 752 mmHg 69%
    23:00 +24°C° 0 mm 1 m/S 752 mmHg 71%
    Mehr zeigen